W1QED Weather Reports


time (UTC)temp
C
wind
direction
speed
KPH
gust
KPH
rain 1hr
cm
rain 24hr
cm
rain mn
cm
humidity
%
barometer
mb
20260507183048 15 293 6.4 14.5 0.00 0.71 0.03 27 1006.6
20260507182546 15 265 6.4 14.5 0.00 0.71 0.03 30 1006.7
20260507182045 15 255 4.8 16.1 0.00 0.71 0.03 29 1006.8
20260507181542 15 305 8.0 16.1 0.00 0.71 0.03 33 1006.7
20260507181143 15 285 4.8 14.5 0.00 0.71 0.03 30 1006.8
20260507180541 15 326 6.4 14.5 0.00 0.71 0.03 31 1007.0
20260507180041 14 335 4.8 11.3 0.00 0.76 0.03 35 1007.0
20260507175541 14 339 3.2 22.5 0.00 0.76 0.03 30 1007.1
20260507175039 15 292 6.4 22.5 0.00 0.76 0.03 28 1007.0
20260507174539 15 279 9.7 22.5 0.00 0.76 0.03 33 1007.0
20260507174038 15 293 4.8 14.5 0.00 0.76 0.03 33 1007.0
20260507173537 15 277 6.4 14.5 0.00 0.76 0.03 37 1007.1
20260507173036 15 296 3.2 19.3 0.00 0.76 0.03 36 1007.0
20260507172534 15 309 8.0 19.3 0.00 0.76 0.03 31 1006.8
20260507172033 15 302 4.8 12.9 0.00 0.76 0.03 34 1007.0
20260507171532 15 313 4.8 17.7 0.00 0.76 0.03 34 1006.9
20260507171033 15 280 6.4 14.5 0.00 0.76 0.03 36 1006.9
20260507170531 14 137 4.8 20.9 0.00 0.76 0.03 36 1007.1
20260507170031 13 318 11.3 25.7 0.00 0.76 0.03 33 1007.1
20260507165528 14 290 9.7 25.7 0.00 0.76 0.03 34 1007.4
20260507165028 14 294 4.8 17.7 0.00 0.76 0.03 34 1007.4
20260507164528 14 293 8.0 19.3 0.00 0.76 0.03 32 1007.5
20260507164027 14 23 8.0 19.3 0.00 0.76 0.03 35 1007.5
20260507163526 15 360 6.4 14.5 0.00 0.76 0.03 36 1007.6
20260507163125 15 309 3.2 12.9 0.00 0.76 0.03 40 1007.7
20260507162524 14 276 4.8 16.1 0.00 0.76 0.03 37 1007.7
20260507162023 13 286 4.8 16.1 0.00 0.76 0.03 34 1007.7
20260507161523 14 287 8.0 16.1 0.00 0.76 0.03 37 1007.6
20260507161021 13 290 8.0 16.1 0.00 0.76 0.03 37 1007.8
20260507160521 14 246 6.4 14.5 0.00 0.76 0.03 36 1007.9
20260507160028 14 301 8.0 16.1 0.00 0.76 0.03 36 1007.9
20260507155520 13 221 8.0 16.1 0.00 0.76 0.03 35 1007.9
20260507155017 13 13 6.4 14.5 0.00 0.76 0.03 39 1007.8
20260507154518 13 299 4.8 19.3 0.00 0.76 0.03 39 1007.9
20260507154016 13 290 9.7 19.3 0.00 0.76 0.03 39 1007.8
20260507153515 13 304 6.4 17.7 0.00 0.76 0.03 39 1007.9
20260507153115 13 317 6.4 17.7 0.00 0.76 0.03 39 1007.9
20260507152514 13 283 6.4 17.7 0.00 0.76 0.03 39 1008.1
20260507152013 13 252 8.0 20.9 0.00 0.76 0.03 39 1008.1
20260507151512 13 266 4.8 20.9 0.00 0.76 0.03 39 1008.1
20260507151010 12 276 6.4 17.7 0.00 0.76 0.03 39 1008.1
20260507150511 13 294 9.7 17.7 0.00 0.76 0.03 40 1008.1
20260507150010 13 269 1.6 11.3 0.00 0.76 0.03 42 1008.2
20260507145506 13 200 3.2 11.3 0.00 0.76 0.03 39 1008.2
20260507145004 13 338 1.6 12.9 0.00 0.76 0.03 45 1008.2
20260507144503 13 260 6.4 17.7 0.00 0.76 0.03 43 1008.2
20260507144101 13 17 9.7 20.9 0.00 0.76 0.03 41 1008.2
20260507143558 12 342 3.2 20.9 0.00 0.76 0.03 45 1008.2
20260507143109 12 304 4.8 12.9 0.00 0.76 0.03 48 1008.2
20260507142557 12 288 3.2 12.9 0.00 0.76 0.03 52 1008.2
20260507142053 12 264 4.8 14.5 0.00 0.76 0.03 55 1008.3
20260507141608 12 297 3.2 16.1 0.00 0.76 0.03 55 1008.2
20260507141054 12 251 4.8 16.1 0.00 0.76 0.03 53 1008.1
20260507140551 12 298 3.2 11.3 0.00 0.76 0.03 55 1008.1
20260507140050 12 312 3.2 16.1 0.00 0.76 0.03 58 1008.1
20260507135549 12 256 6.4 16.1 0.00 0.76 0.03 55 1008.0
20260507135047 12 240 3.2 11.3 0.00 0.76 0.03 59 1008.0
20260507134548 11 297 3.2 11.3 0.00 0.76 0.03 56 1008.1
20260507134047 12 263 3.2 9.7 0.00 0.76 0.03 55 1008.0
20260507133545 12 281 3.2 9.7 0.00 0.76 0.03 59 1008.0
20260507133043 12 25 4.8 14.5 0.00 0.76 0.03 59 1007.9
20260507132541 12 306 4.8 12.9 0.00 0.76 0.03 58 1007.9
20260507132040 11 288 6.4 12.9 0.00 0.76 0.03 57 1007.9
20260507131551 11 246 6.4 12.9 0.00 0.76 0.03 58 1008.0
20260507131039 11 281 3.2 12.9 0.00 0.76 0.03 59 1008.1
20260507130540 11 319 4.8 12.9 0.00 0.76 0.03 60 1008.1
20260507130042 11 309 6.4 11.3 0.00 0.76 0.03 58 1008.2
20260507125537 11 233 1.6 8.0 0.00 0.76 0.03 61 1008.1
20260507125036 11 262 3.2 9.7 0.00 0.76 0.03 61 1008.2
20260507124536 11 275 3.2 12.9 0.00 0.76 0.03 62 1008.2
20260507124034 11 303 4.8 12.9 0.00 0.76 0.03 61 1008.2
20260507123534 11 315 6.4 14.5 0.00 0.76 0.03 61 1008.2
20260507123032 10 297 6.4 16.1 0.00 0.76 0.03 61 1008.2
20260507122531 11 313 6.4 16.1 0.00 0.76 0.03 60 1008.2
20260507122031 11 281 6.4 14.5 0.00 0.76 0.03 63 1008.3
20260507121531 10 286 6.4 14.5 0.00 0.76 0.03 62 1008.3
20260507121030 10 290 4.8 11.3 0.00 0.76 0.03 63 1008.3
20260507120529 10 310 3.2 9.7 0.00 0.76 0.03 64 1008.2
20260507120027 10 322 4.8 9.7 0.00 0.76 0.03 65 1008.1
20260507115527 10 314 1.6 9.7 0.00 0.76 0.03 68 1008.1
20260507115024 9 274 3.2 9.7 0.00 0.76 0.03 68 1008.2
20260507114525 8 276 3.2 8.0 0.00 0.76 0.03 67 1008.1
20260507114022 8 328 3.2 8.0 0.00 0.76 0.03 68 1008.0
20260507113524 8 293 3.2 8.0 0.00 0.76 0.03 68 1008.0
20260507113023 8 290 1.6 8.0 0.00 0.76 0.03 68 1007.8
20260507112520 8 317 1.6 8.0 0.00 0.76 0.03 68 1007.9
20260507112019 8 274 3.2 8.0 0.00 0.76 0.03 68 1008.0
20260507111518 8 304 3.2 8.0 0.00 0.76 0.03 68 1008.0
20260507111019 8 284 3.2 8.0 0.00 0.76 0.03 68 1008.0
20260507110517 8 274 3.2 9.7 0.00 0.76 0.03 68 1007.9
20260507110017 8 293 1.6 9.7 0.00 0.76 0.03 69 1007.8
20260507105516 8 254 1.6 6.4 0.00 0.76 0.03 69 1007.8
20260507105015 7 280 1.6 4.8 0.00 0.76 0.03 69 1007.8
20260507104514 7 290 1.6 4.8 0.00 0.76 0.03 69 1007.8
20260507104015 7 276 1.6 6.4 0.00 0.76 0.03 69 1007.9
20260507103513 7 292 3.2 6.4 0.00 0.76 0.03 69 1007.6
20260507103011 7 281 1.6 6.4 0.00 0.76 0.03 69 1007.5
20260507102511 7 292 1.6 6.4 0.00 0.76 0.03 69 1007.3
20260507102010 7 311 1.6 6.4 0.00 0.76 0.03 69 1007.2
20260507101510 7 285 3.2 6.4 0.00 0.76 0.03 70 1007.3
20260507101108 7 295 0.0 4.8 0.00 0.76 0.03 70 1007.4
20260507100508 7 274 1.6 4.8 0.00 0.76 0.03 70 1007.3
20260507100008 7 323 1.6 6.4 0.00 0.76 0.03 70 1007.4
20260507095507 7 336 1.6 6.4 0.00 0.76 0.03 70 1007.2
20260507095008 7 299 1.6 4.8 0.00 0.76 0.03 70 1007.5
20260507094505 7 316 1.6 9.7 0.00 0.76 0.03 70 1007.3
20260507094006 7 314 3.2 9.7 0.00 0.76 0.03 70 1007.3
20260507093503 7 306 1.6 4.8 0.00 0.76 0.03 70 1007.3
20260507093002 7 325 1.6 4.8 0.00 0.76 0.03 71 1007.4
20260507092501 7 296 0.0 4.8 0.00 0.76 0.03 71 1007.7
20260507092001 7 300 0.0 3.2 0.00 0.76 0.03 71 1007.6
20260507091600 7 297 0.0 1.6 0.00 0.76 0.03 71 1007.7
20260507091102 7 297 0.0 1.6 0.00 0.76 0.03 71 1007.8
20260507090558 7 297 0.0 1.6 0.00 0.76 0.03 71 1007.9
20260507085558 7 302 1.6 3.2 0.00 0.76 0.03 71 1007.8
20260507085056 7 266 0.0 4.8 0.00 0.76 0.03 71 1007.9
20260507084558 7 278 0.0 4.8 0.00 0.76 0.03 71 1008.1
20260507084054 7 263 0.0 6.4 0.00 0.76 0.03 71 1007.9
20260507083556 7 300 1.6 6.4 0.00 0.76 0.03 70 1007.7
20260507083054 7 302 1.6 3.2 0.00 0.76 0.03 70 1007.9
20260507082553 7 295 0.0 3.2 0.00 0.76 0.03 70 1008.0
20260507082051 8 318 0.0 4.8 0.00 0.76 0.03 70 1007.4
20260507081555 8 280 0.0 4.8 0.00 0.76 0.03 70 1007.5
20260507081050 8 275 0.0 4.8 0.00 0.76 0.03 69 1007.5
20260507080550 8 284 0.0 6.4 0.00 0.76 0.03 69 1007.5
20260507080056 8 297 1.6 8.0 0.00 0.76 0.03 69 1007.7
20260507075547 8 290 3.2 8.0 0.00 0.76 0.03 69 1007.6
20260507075045 8 289 1.6 9.7 0.00 0.76 0.03 68 1007.2
20260507074546 8 284 3.2 9.7 0.00 0.76 0.03 67 1007.2
20260507074043 8 304 1.6 8.0 0.00 0.76 0.03 67 1007.0
20260507073544 8 317 1.6 6.4 0.00 0.76 0.03 67 1007.2
20260507073041 8 307 3.2 8.0 0.00 0.76 0.03 67 1007.2
20260507072541 8 306 3.2 9.7 0.00 0.76 0.03 67 1007.3
20260507072040 8 271 1.6 9.7 0.00 0.76 0.03 67 1007.7
20260507071538 8 278 3.2 9.7 0.00 0.76 0.03 67 1007.3
20260507071037 8 295 3.2 9.7 0.00 0.76 0.03 67 1007.0
20260507070536 8 299 3.2 9.7 0.00 0.76 0.03 67 1007.0
20260507070041 8 310 3.2 6.4 0.00 0.76 0.03 67 1007.0
20260507065537 8 282 1.6 8.0 0.00 0.76 0.03 67 1006.9
20260507065032 8 287 1.6 11.3 0.00 0.76 0.03 67 1006.8
20260507064558 8 308 1.6 12.9 0.00 0.76 0.03 68 1006.8
20260507064030 8 296 1.6 9.7 0.00 0.76 0.03 68 1006.6
20260507063529 8 288 3.2 8.0 0.00 0.76 0.03 68 1006.7
20260507063033 8 281 1.6 8.0 0.00 0.76 0.03 68 1006.4
20260507062530 8 298 1.6 9.7 0.00 0.76 0.03 69 1006.7
20260507062025 8 295 3.2 9.7 0.00 0.76 0.03 70 1006.9
20260507061524 8 236 0.0 4.8 0.00 0.76 0.03 70 1007.0
20260507061022 9 250 0.0 3.2 0.00 0.76 0.03 70 1006.9
20260507060521 9 244 0.0 3.2 0.00 0.76 0.03 70 1006.8
20260507060021 9 295 0.0 1.6 0.00 0.76 0.03 70 1006.9
20260507055519 9 295 0.0 1.6 0.00 0.76 0.03 69 1007.0
20260507055018 9 295 0.0 4.8 0.00 0.76 0.03 69 1006.9
20260507054517 9 295 0.0 4.8 0.00 0.76 0.03 69 1007.0
20260507054016 9 319 0.0 4.8 0.00 0.76 0.03 69 1006.9
20260507053515 9 281 1.6 4.8 0.00 0.76 0.03 69 1007.1
20260507053015 9 321 1.6 6.4 0.00 0.76 0.03 69 1007.4
20260507052513 10 304 3.2 6.4 0.00 0.76 0.03 69 1007.4
20260507052012 10 291 1.6 9.7 0.00 0.76 0.03 70 1007.5
20260507051511 10 293 3.2 9.7 0.00 0.76 0.03 70 1007.5
20260507051009 10 285 0.0 4.8 0.03 0.76 0.03 70 1007.5
20260507050509 10 288 0.0 6.4 0.03 0.76 0.03 69 1007.2
20260507050015 10 289 1.6 11.3 0.03 0.76 0.03 69 1007.1
20260507045507 10 295 3.2 12.9 0.03 0.76 0.03 69 1007.3
20260507045004 10 257 4.8 12.9 0.03 0.76 0.03 70 1007.3
20260507044503 10 302 1.6 6.4 0.03 0.76 0.03 71 1007.2
20260507044001 10 277 1.6 4.8 0.03 0.76 0.03 71 1007.2
20260507043600 10 276 0.0 4.8 0.03 0.76 0.03 71 1007.2
20260507043059 10 328 0.0 4.8 0.03 0.76 0.03 71 1007.0
20260507042559 10 281 0.0 3.2 0.05 0.76 0.03 71 1006.9
20260507042057 11 313 0.0 4.8 0.05 0.76 0.03 71 1007.0
20260507041556 11 316 1.6 4.8 0.05 0.76 0.03 71 1007.1
20260507041054 11 298 0.0 8.0 0.03 0.71 0.00 70 1007.0
20260507040554 11 290 3.2 8.0 0.03 0.71 0.00 70 1006.8
20260507040052 11 290 3.2 4.8 0.03 0.71 0.00 70 1006.9
20260507035550 11 228 0.0 6.4 0.03 0.71 0.71 70 1007.1
20260507035049 11 295 1.6 9.7 0.03 0.71 0.71 71 1007.0
20260507034547 11 317 3.2 9.7 0.03 0.71 0.71 71 1006.9
20260507034045 12 313 1.6 8.0 0.03 0.71 0.71 72 1006.8
20260507033544 12 287 0.0 4.8 0.03 0.71 0.71 72 1006.8
20260507033043 12 282 0.0 4.8 0.03 0.71 0.71 71 1006.7
20260507032544 12 274 0.0 4.8 0.00 0.71 0.71 71 1006.9
20260507032042 12 280 0.0 4.8 0.00 0.71 0.71 71 1006.6
20260507031540 12 277 0.0 3.2 0.00 0.71 0.71 71 1006.5
20260507031039 12 280 0.0 4.8 0.00 0.71 0.71 71 1006.5
20260507030538 12 268 1.6 6.4 0.00 0.71 0.71 71 1006.3
20260507030038 13 290 1.6 9.7 0.00 0.71 0.71 71 1006.1
20260507025537 13 290 1.6 11.3 0.00 0.71 0.71 72 1006.2
20260507025035 13 291 3.2 8.0 0.00 0.71 0.71 73 1006.0
20260507024533 13 281 1.6 8.0 0.00 0.71 0.71 73 1006.0
20260507024030 13 218 0.0 6.4 0.00 0.71 0.71 73 1006.0
20260507023529 13 231 1.6 8.0 0.00 0.71 0.71 73 1006.1
20260507023028 13 233 1.6 8.0 0.00 0.71 0.71 73 1006.1
20260507022526 14 233 1.6 11.3 0.00 0.71 0.71 73 1006.1
20260507022025 14 248 4.8 12.9 0.00 0.71 0.71 74 1006.1
20260507021523 14 231 3.2 12.9 0.00 0.71 0.71 75 1006.0
20260507021024 15 252 1.6 12.9 0.00 0.71 0.71 76 1006.1
20260507020523 15 257 4.8 17.7 0.00 0.71 0.71 77 1005.9
20260507020022 15 248 3.2 17.7 0.00 0.71 0.71 77 1005.8
20260507015523 15 259 9.7 16.1 0.00 0.71 0.71 77 1005.7
20260507015022 15 228 4.8 11.3 0.00 0.71 0.71 77 1005.5
20260507014520 15 243 6.4 12.9 0.00 0.71 0.71 77 1005.6
20260507014020 15 233 6.4 12.9 0.00 0.71 0.71 77 1005.6
20260507013519 15 205 6.4 12.9 0.00 0.71 0.71 77 1005.7
20260507013018 15 217 6.4 11.3 0.00 0.71 0.71 77 1005.5
20260507012518 15 223 4.8 9.7 0.00 0.71 0.71 77 1005.5
20260507012018 15 211 4.8 12.9 0.00 0.71 0.71 77 1005.5
20260507011517 15 218 8.0 12.9 0.00 0.71 0.71 78 1005.4
20260507011015 15 181 6.4 12.9 0.00 0.71 0.71 78 1005.5
20260507010514 15 232 4.8 12.9 0.00 0.71 0.71 78 1005.6
20260507010018 15 236 6.4 17.7 0.00 0.71 0.71 78 1005.5
20260507005513 15 240 8.0 17.7 0.00 0.71 0.71 78 1005.5
20260507005013 15 146 6.4 17.7 0.00 0.71 0.71 78 1005.5
20260507004513 15 238 6.4 17.7 0.00 0.71 0.71 79 1005.4
20260507004011 15 224 8.0 17.7 0.00 0.71 0.71 79 1005.4
20260507003510 15 217 8.0 16.1 0.03 0.71 0.71 80 1005.3
20260507003009 15 212 6.4 12.9 0.03 0.71 0.71 80 1005.2
20260507002508 15 237 6.4 12.9 0.03 0.71 0.71 80 1005.2
20260507002007 15 251 6.4 12.9 0.03 0.71 0.71 80 1005.2
20260507001511 14 219 6.4 9.7 0.05 0.71 0.71 80 1005.3
20260507001006 14 198 3.2 9.7 0.05 0.71 0.71 80 1005.1
20260507000606 14 227 3.2 9.7 0.05 0.71 0.71 80 1005.1
20260507000004 14 150 4.8 8.0 0.08 0.71 0.71 80 1005.1
20260506235503 14 127 3.2 8.0 0.08 0.71 0.71 80 1005.0
20260506235004 14 213 3.2 12.9 0.10 0.71 0.71 80 1005.2
20260506234502 14 226 4.8 12.9 0.10 0.71 0.71 80 1005.2
20260506234002 14 207 4.8 12.9 0.13 0.71 0.71 80 1005.0
20260506233500 14 196 4.8 11.3 0.10 0.69 0.69 80 1004.9
20260506233000 14 227 4.8 11.3 0.13 0.69 0.69 80 1005.0
20260506232600 14 200 3.2 11.3 0.13 0.69 0.69 80 1004.9
20260506232059 14 165 3.2 11.3 0.15 0.69 0.69 80 1004.8
20260506231610 14 215 4.8 11.3 0.13 0.66 0.66 80 1005.0
20260506231059 14 185 3.2 8.0 0.15 0.66 0.66 80 1004.9
20260506230557 14 156 3.2 11.3 0.15 0.66 0.66 80 1004.9
20260506230111 14 217 4.8 11.3 0.13 0.64 0.64 80 1004.9
20260506225555 14 229 4.8 9.7 0.15 0.64 0.64 80 1005.0
20260506225054 14 224 3.2 11.3 0.13 0.61 0.61 80 1005.0
20260506224553 14 214 4.8 11.3 0.13 0.61 0.61 80 1005.1
20260506224053 14 202 4.8 9.7 0.13 0.58 0.58 79 1005.1
20260506223551 14 223 4.8 12.9 0.13 0.58 0.58 79 1005.1
20260506223050 14 226 4.8 12.9 0.10 0.56 0.56 79 1005.0
20260506222551 14 193 4.8 12.9 0.10 0.56 0.56 79 1005.0
20260506222048 14 243 4.8 14.5 0.10 0.53 0.53 78 1005.1
20260506221607 14 212 4.8 14.5 0.10 0.53 0.53 78 1005.0
20260506221047 14 205 6.4 12.9 0.10 0.51 0.51 78 1005.1
20260506220549 14 200 4.8 12.9 0.10 0.51 0.51 78 1005.1
20260506220101 14 182 4.8 12.9 0.10 0.51 0.51 78 1005.2
20260506215544 14 170 6.4 14.5 0.10 0.48 0.48 77 1005.4
20260506215043 14 215 4.8 14.5 0.10 0.48 0.48 77 1005.2
20260506214547 14 227 3.2 12.9 0.13 0.48 0.48 77 1005.2
20260506214041 14 193 3.2 14.5 0.10 0.46 0.46 76 1005.3
20260506213540 15 222 8.0 17.7 0.13 0.46 0.46 76 1005.3
20260506213044 15 233 6.4 17.7 0.13 0.46 0.46 76 1005.4
20260506212537 15 152 4.8 19.3 0.15 0.46 0.46 76 1005.4
20260506212036 15 221 6.4 19.3 0.13 0.43 0.43 76 1005.5
20260506211536 15 207 8.0 14.5 0.15 0.43 0.43 76 1005.4
20260506211033 15 215 8.0 12.9 0.15 0.41 0.41 76 1005.5
20260506210532 15 152 4.8 11.3 0.15 0.41 0.41 76 1005.4
20260506210033 15 220 3.2 11.3 0.18 0.41 0.41 75 1005.6
20260506205530 15 203 3.2 9.7 0.15 0.38 0.38 74 1005.5
20260506205026 15 205 3.2 12.9 0.18 0.38 0.38 74 1005.6
20260506204527 15 154 6.4 17.7 0.15 0.36 0.36 73 1005.7
20260506204022 15 211 4.8 19.3 0.18 0.36 0.36 73 1005.7
20260506203524 15 174 8.0 19.3 0.15 0.33 0.33 73 1005.7
20260506203019 15 174 8.0 19.3 0.15 0.33 0.33 73 1005.8
20260506202516 15 191 8.0 19.3 0.13 0.30 0.30 73 1005.9
20260506202015 15 216 12.9 22.5 0.13 0.30 0.30 73 1006.0
20260506201526 15 166 9.7 22.5 0.10 0.28 0.28 73 1006.0
20260506201011 15 203 8.0 19.3 0.08 0.25 0.25 73 1006.0
20260506200510 15 230 6.4 14.5 0.08 0.25 0.25 72 1005.9
20260506200008 15 221 4.8 11.3 0.08 0.23 0.23 72 1006.0
20260506195508 15 136 4.8 12.9 0.08 0.23 0.23 72 1006.0
20260506195006 15 193 6.4 12.9 0.05 0.20 0.20 71 1006.1
20260506194506 16 202 4.8 16.1 0.03 0.18 0.18 71 1006.0
20260506194003 16 205 6.4 14.5 0.03 0.18 0.18 71 1006.1
20260506193503 16 201 6.4 12.9 0.03 0.18 0.18 71 1006.2
20260506193002 16 216 8.0 16.1 0.05 0.18 0.18 71 1006.1
20260506192504 16 174 4.8 16.1 0.05 0.18 0.18 71 1006.2
20260506192100 16 174 6.4 16.1 0.08 0.18 0.18 70 1006.2
20260506191622 16 218 6.4 16.1 0.08 0.18 0.18 70 1006.1
20260506191058 16 260 9.7 17.7 0.10 0.18 0.18 70 1006.1
20260506190558 16 199 9.7 22.5 0.10 0.18 0.18 70 1006.3
20260506190057 16 255 12.9 22.5 0.10 0.15 0.15 70 1006.2
20260506185556 16 146 9.7 17.7 0.10 0.15 0.15 70 1006.1
20260506185054 16 191 3.2 11.3 0.13 0.15 0.15 70 1006.0
20260506184605 16 198 4.8 12.9 0.13 0.15 0.15 69 1006.2
20260506184053 16 196 6.4 20.9 0.15 0.15 0.15 69 1006.2
20260506183551 16 245 8.0 20.9 0.15 0.15 0.15 69 1006.4